20050426,000021,982654,32.670790,-121.015018,4.5,15.677,33.034,41.388,1352.50,0.0,0.953,15.019,14.990, NaN,24.308,   NaN,14.25,1016.98,83.54,14.64,296.0,293.3,6.8,8.0,308.5,312.9,6.8,7.9,NaN, NaN,15.6,51.8,54.2,1114473621,1114473621,1,10.2,000020,000021,59.5,32.670776,-121.015120,10.78,NaN,NaN,15.681, NaN,NaN,NaN, NaN, NaN
20050426,000050,982683,32.671485,-121.013523,4.6,15.678,33.037,41.392,1033.72,0.0,0.935,15.068,15.036, NaN,24.310,   NaN,14.25,1016.91,83.61,14.67,296.2,294.8,7.0,8.2,309.4,314.6,6.9,7.9,NaN, NaN,16.5,61.8,64.1,1114473651,1114473651,1,10.6,000050,000051,58.3,32.671465,-121.013622,10.53,NaN,NaN,15.682, NaN,NaN,NaN, NaN, NaN
20050426,000120,982713,32.672181,-121.012043,4.7,15.685,33.035,41.397,1316.00,0.0,0.897,15.105,15.075, NaN,24.307,   NaN,14.19,1016.87,83.47,14.62,298.3,297.1,7.8,8.6,315.3,318.3,7.3,8.0,NaN, NaN,15.7,67.4,67.6,1114473681,1114473681,1,10.1,000080,000081,57.6,32.672160,-121.012147,10.36,NaN,NaN,15.689, NaN,NaN,NaN, NaN, NaN
20050426,000150,982743,32.672895,-121.010560,4.7,15.702,33.024,41.400,1117.01,0.0,0.878,15.141,15.111, NaN,24.295,   NaN,14.17,1016.87,83.49,14.61,297.3,295.8,8.0,9.1,315.7,318.8,7.5,8.5,NaN, NaN,15.9,66.2,63.8,1114473711,1114473711,1,10.5,000110,000111,58.3,32.672875,-121.010653,10.57,NaN,NaN,15.706, NaN,NaN,NaN, NaN, NaN
20050426,000220,982774,32.673600,-121.009065,4.6,15.742,32.996,41.407,1201.52,0.0,0.821,15.175,15.145, NaN,24.264,   NaN,14.19,1016.90,83.52,14.59,296.7,295.1,7.5,8.8,312.5,317.2,7.2,8.3,NaN, NaN,15.5,62.4,62.5,1114473741,1114473741,1,10.4,000140,000141,58.3,32.673581,-121.009167,10.62,NaN,NaN,15.746, NaN,NaN,NaN, NaN, NaN
20050426,000250,982803,32.674301,-121.007572,4.7,15.784,32.968,41.414,1855.00,0.0,0.746,15.207,15.177, NaN,24.233,   NaN,14.16,1016.93,83.31,14.57,298.3,295.4,7.2,8.3,312.2,315.2,6.8,7.9,NaN, NaN,16.6,61.9,61.5,1114473771,1114473771,1,10.6,000170,000171,59.0,32.674288,-121.007675,10.56,NaN,NaN,15.788, NaN,NaN,NaN, NaN, NaN
20050426,000320,982833,32.675006,-121.006080,4.5,15.837,32.933,41.424,1192.78,0.0,0.708,15.235,15.204, NaN,24.194,   NaN,14.17,1016.86,83.27,14.55,299.3,295.8,7.6,8.4,315.0,316.0,7.1,8.0,NaN, NaN,15.5,49.1,54.0,1114473801,1114473801,1,10.7,000200,000201,59.0,32.674995,-121.006182,10.77,NaN,NaN,15.841, NaN,NaN,NaN, NaN, NaN
20050426,000350,982863,32.675703,-121.004602,4.6,15.848,32.936,41.439,1178.63,0.0,0.670,15.260,15.230, NaN,24.195,   NaN,14.23,1016.89,83.36,14.61,297.7,296.0,7.8,8.7,314.5,317.9,7.3,8.2,NaN, NaN,15.3,52.8,58.0,1114473831,1114473831,1,10.2,000230,000231,57.6,32.675683,-121.004707,10.46,NaN,NaN,15.852, NaN,NaN,NaN, NaN, NaN
20050426,000421,982894,32.676416,-121.003120,4.5,15.900,32.912,41.460,1480.66,0.0,0.670,15.282,15.250, NaN,24.164,   NaN,14.23,1016.86,83.08,14.64,296.6,295.3,7.8,8.7,313.9,317.2,7.3,8.2,NaN, NaN,15.4,66.4,63.1,1114473861,1114473861,1,10.3,000260,000261,58.6,32.676388,-121.003220,10.35,NaN,NaN,15.904, NaN,NaN,NaN, NaN, NaN
20050426,000450,982923,32.677098,-121.001645,4.6,15.936,32.908,41.490,924.62,0.0,0.651,15.300,15.270, NaN,24.154,   NaN,14.20,1016.90,83.12,14.60,295.4,292.8,7.4,8.6,311.2,314.9,7.2,8.3,NaN, NaN,16.0,60.2,61.5,1114473891,1114473891,1,10.4,000290,000291,58.1,32.677085,-121.001730,10.45,NaN,NaN,15.940, NaN,NaN,NaN, NaN, NaN
20050426,000520,982953,32.677803,-121.000173,4.7,15.969,32.904,41.516,1364.12,0.0,0.651,15.316,15.284, NaN,24.143,   NaN,14.21,1016.89,82.91,14.64,294.1,291.2,7.0,8.8,308.1,314.4,7.0,8.6,NaN, NaN,16.8,62.2,61.8,1114473921,1114473921,1,10.6,000320,000321,58.6,32.677796,-121.000248,10.59,NaN,NaN,15.973, NaN,NaN,NaN, NaN, NaN
20050426,000550,982983,32.678491,-120.998700,4.6,15.992,32.913,41.547,1551.72,0.0,0.633,15.323,15.296, NaN,24.144,   NaN,14.18,1016.91,82.85,14.58,292.6,291.2,7.0,8.8,307.7,314.6,7.1,8.6,NaN, NaN,17.5,70.1,66.0,1114473951,1114473951,1,10.4,000350,000351,58.5,32.678481,-120.998771,10.28,NaN,NaN,15.996, NaN,NaN,NaN, NaN, NaN
20050426,000620,983013,32.679178,-120.997248,4.6,16.017,32.916,41.575,1010.46,0.0,0.633,15.329,15.298, NaN,24.141,   NaN,14.26,1016.84,82.94,14.62,293.8,292.0,7.0,8.5,308.6,314.2,7.0,8.3,NaN, NaN,17.0,76.5,70.6,1114473981,1114473981,1,10.2,000380,000381,56.8,32.679156,-120.997326,10.17,NaN,NaN,16.021, NaN,NaN,NaN, NaN, NaN
20050426,000651,983044,32.679846,-120.995810,4.6,16.050,32.913,41.602,1065.38,0.0,0.614,15.336,15.301, NaN,24.132,   NaN,14.23,1016.87,82.61,14.65,294.6,292.6,7.1,8.6,310.0,315.5,7.0,8.4,NaN, NaN,16.4,63.0,60.8,1114474011,1114474011,1,10.0,000410,000411,58.8,32.679836,-120.995895,10.18,NaN,NaN,16.054, NaN,NaN,NaN, NaN, NaN
20050426,000720,983073,32.680526,-120.994368,4.5,16.070,32.921,41.630,1339.55,0.0,0.614,15.339,15.304, NaN,24.133,   NaN,14.20,1016.87,82.55,14.61,295.2,292.4,7.1,8.6,310.9,315.8,7.0,8.4,NaN, NaN,16.5,63.0,59.3,1114474041,1114474041,1,10.0,000440,000441,59.4,32.680516,-120.994453,10.38,NaN,NaN,16.074, NaN,NaN,NaN, NaN, NaN
20050426,000750,983103,32.681196,-120.992948,4.6,16.083,32.933,41.656,1469.83,0.0,0.614,15.340,15.307, NaN,24.140,   NaN,14.23,1016.91,82.56,14.64,294.2,290.7,7.0,8.5,309.4,314.1,7.0,8.5,NaN, NaN,16.4,70.3,65.0,1114474071,1114474071,1,10.0,000470,000471,58.6,32.681183,-120.993021,10.20,NaN,NaN,16.087, NaN,NaN,NaN, NaN, NaN
20050426,000820,983133,32.681876,-120.991506,4.6,16.100,32.940,41.680,1222.82,0.0,0.614,15.340,15.311, NaN,24.141,   NaN,14.25,1016.91,82.43,14.64,293.9,290.1,6.7,8.5,307.8,313.2,6.8,8.5,NaN, NaN,17.5,68.8,65.6,1114474101,1114474101,1,10.0,000500,000501,58.3,32.681855,-120.991580,10.11,NaN,NaN,16.104, NaN,NaN,NaN, NaN, NaN
20050426,000850,983163,32.682560,-120.990065,4.6,16.108,32.952,41.701,1184.99,0.0,0.595,15.344,15.314, NaN,24.149,   NaN,14.23,1016.85,82.33,14.64,294.0,290.2,6.6,8.5,307.1,313.5,6.7,8.5,NaN, NaN,15.6,63.9,60.1,1114474131,1114474131,1,10.0,000530,000531,59.6,32.682536,-120.990171,10.17,NaN,NaN,16.112, NaN,NaN,NaN, NaN, NaN
20050426,000920,983193,32.683246,-120.988638,4.7,16.115,32.966,41.723,1207.63,0.0,0.595,15.346,15.316, NaN,24.157,   NaN,14.25,1016.88,82.29,14.67,293.9,290.7,7.1,9.0,309.9,315.6,7.0,8.8,NaN, NaN,14.8,73.7,63.3,1114474161,1114474161,1,9.5,000560,000561,58.6,32.683220,-120.988745,10.49,NaN,NaN,16.119, NaN,NaN,NaN, NaN, NaN
20050426,000950,983223,32.683933,-120.987221,4.6,16.125,32.974,41.742,889.82,0.0,0.595,15.351,15.322, NaN,24.161,   NaN,14.19,1016.90,82.05,14.64,292.7,290.3,7.0,8.6,308.5,313.8,7.1,8.5,NaN, NaN,13.5,68.0,61.4,1114474191,1114474191,1,9.9,000590,000591,59.3,32.683906,-120.987330,10.09,NaN,NaN,16.129, NaN,NaN,NaN, NaN, NaN
20050426,001020,983253,32.684598,-120.985810,4.6,16.128,32.984,41.756,1271.14,0.0,0.595,15.363,15.334, NaN,24.169,   NaN,14.29,1016.94,82.38,14.65,293.6,290.8,6.9,8.4,309.1,313.8,6.9,8.3,NaN, NaN,14.7,71.6,66.8,1114474221,1114474221,1,9.3,000620,000621,56.5,32.684565,-120.985915,9.96,NaN,NaN,16.132, NaN,NaN,NaN, NaN, NaN
20050426,001050,983283,32.685081,-120.984916,4.5,16.136,32.990,41.770,1217.32,0.0,0.576,15.377,15.347, NaN,24.171,   NaN,14.34,1016.91,82.39,14.71,295.5,292.1,7.0,8.4,315.2,317.9,6.7,8.1,NaN, NaN,14.0,58.6,58.1,1114474251,1114474251,1,4.9,000650,000651,49.6,32.685018,-120.985041,5.84,NaN,NaN,16.140, NaN,NaN,NaN, NaN, NaN
20050426,001120,983313,32.685390,-120.984401,4.5,16.137,32.997,41.779,1579.67,0.0,0.576,15.392,15.362, NaN,24.176,   NaN,14.26,1016.96,82.18,14.70,293.4,291.3,6.7,8.2,319.6,321.9,6.4,8.0,NaN, NaN,13.3,17.8,34.7,1114474281,1114474281,1,3.1,000680,000681,47.1,32.685331,-120.984533,3.59,NaN,NaN,16.141, NaN,NaN,NaN, NaN, NaN
20050426,001150,983343,32.685613,-120.984033,4.4,16.144,33.002,41.790,1493.40,0.0,0.557,15.408,15.374, NaN,24.178,   NaN,14.17,1016.99,82.16,14.65,288.4,286.1,6.3,8.1,320.1,321.5,6.2,8.0,NaN, NaN,13.5,71.4,61.0,1114474311,1114474311,1,2.4,000710,000711,48.0,32.685538,-120.984170,2.78,NaN,NaN,16.148, NaN,NaN,NaN, NaN, NaN
20050426,001220,983373,32.685751,-120.983726,4.4,16.153,32.998,41.796,1381.79,0.0,0.557,15.419,15.387, NaN,24.173,   NaN,14.13,1017.02,81.97,14.59,285.9,280.8,5.7,7.6,321.1,319.2,5.7,7.7,NaN, NaN,13.1,70.1,73.3,1114474341,1114474341,1,1.7,000740,000741,48.6,32.685681,-120.983875,2.21,NaN,NaN,16.157, NaN,NaN,NaN, NaN, NaN
20050426,001250,983403,32.685878,-120.983485,4.5,16.157,33.001,41.803,1214.01,0.0,0.557,15.427,15.398, NaN,24.175,   NaN,14.26,1017.05,82.40,14.59,283.7,277.7,4.5,6.9,313.9,317.9,4.6,7.0,NaN, NaN,13.3,42.5,53.5,1114474371,1114474371,1,1.6,000770,000771,49.1,32.685806,-120.983626,1.91,NaN,NaN,16.161, NaN,NaN,NaN, NaN, NaN
20050426,001320,983433,32.685968,-120.983241,4.6,16.171,32.996,41.810,1357.94,0.0,0.557,15.438,15.408, NaN,24.168,   NaN,14.30,1017.00,82.02,14.67,269.0,274.8,2.9,6.9,294.2,316.5,3.3,7.1,NaN, NaN,12.6,352.5,26.3,1114474401,1114474401,1,1.3,000800,000801,48.8,32.685900,-120.983398,1.63,NaN,NaN,16.175, NaN,NaN,NaN, NaN, NaN
20050426,001350,983463,32.686046,-120.983048,4.3,16.189,32.988,41.818,989.59,0.0,0.538,15.444,15.414, NaN,24.158,   NaN,14.23,1017.01,81.81,14.64,258.9,274.2,2.2,7.1,288.5,316.8,2.6,7.3,NaN, NaN,13.6,20.5,24.8,1114474431,1114474431,1,1.3,000830,000831,48.0,32.685976,-120.983193,1.48,NaN,NaN,16.193, NaN,NaN,NaN, NaN, NaN
20050426,001420,983493,32.686121,-120.982855,4.5,16.210,32.975,41.824,1399.06,0.0,0.538,15.449,15.416, NaN,24.143,   NaN,14.34,1016.95,82.34,14.67,275.0,273.4,1.5,6.5,282.7,315.2,1.9,6.7,NaN, NaN,13.8,15.6,27.0,1114474461,1114474461,1,1.1,000860,000861,48.0,32.686050,-120.983001,1.58,NaN,NaN,16.214, NaN,NaN,NaN, NaN, NaN
20050426,001450,983523,32.686166,-120.982648,4.5,16.222,32.972,41.831,1419.75,0.0,0.538,15.453,15.421, NaN,24.138,   NaN,14.50,1016.97,82.58,14.86,276.3,273.9,1.5,6.8,292.3,316.4,2.0,7.0,NaN, NaN,13.4,24.6,54.5,1114474491,1114474491,1,1.0,000890,000891,49.3,32.686108,-120.982803,1.39,NaN,NaN,16.226, NaN,NaN,NaN, NaN, NaN
20050426,001521,983554,32.686231,-120.982463,4.5,16.241,32.964,41.840,1530.55,0.0,0.538,15.454,15.422, NaN,24.128,   NaN,14.37,1016.99,82.21,14.80,275.7,272.8,1.3,7.2,285.5,316.1,1.7,7.5,NaN, NaN,13.7,86.5,91.8,1114474521,1114474521,1,1.2,000920,000921,45.0,32.686150,-120.982610,1.41,NaN,NaN,16.245, NaN,NaN,NaN, NaN, NaN
20050426,001550,983583,32.686283,-120.982298,4.6,16.248,32.968,41.852,1699.22,0.0,0.538,15.455,15.425, NaN,24.129,   NaN,14.36,1016.96,82.34,14.75,268.8,272.4,2.0,7.4,287.6,314.1,2.3,7.7,NaN, NaN,13.2,116.2,90.3,1114474551,1114474551,1,0.9,000950,000951,43.6,32.686200,-120.982440,1.22,NaN,NaN,16.252, NaN,NaN,NaN, NaN, NaN
20050426,001620,983613,32.686358,-120.982136,4.3,16.254,32.972,41.861,1514.96,0.0,0.538,15.458,15.428, NaN,24.131,   NaN,14.24,1016.99,82.14,14.64,268.0,273.7,2.2,7.2,291.6,313.2,2.5,7.4,NaN, NaN,13.0,42.5,24.1,1114474581,1114474581,1,1.4,000980,000981,44.5,32.686276,-120.982278,1.42,NaN,NaN,16.258, NaN,NaN,NaN, NaN, NaN
20050426,001651,983644,32.686440,-120.981926,4.3,16.262,32.979,41.876,1605.41,0.0,0.538,15.461,15.430, NaN,24.134,   NaN,14.41,1017.01,82.85,14.69,281.6,274.8,1.5,6.7,293.0,314.2,1.8,6.9,NaN, NaN,12.8,45.9,46.7,1114474611,1114474611,1,1.4,001010,001011,48.6,32.686371,-120.982075,1.63,NaN,NaN,16.266, NaN,NaN,NaN, NaN, NaN
20050426,001720,983673,32.686551,-120.981665,4.5,16.268,32.980,41.884,621.57,0.0,0.519,15.464,15.434, NaN,24.134,   NaN,14.29,1017.02,81.96,14.70,292.5,275.0,1.8,6.7,301.3,316.6,2.0,6.9,NaN, NaN,11.9,41.7,47.5,1114474641,1114474641,1,1.7,001040,001041,51.5,32.686471,-120.981755,2.03,NaN,NaN,16.272, NaN,NaN,NaN, NaN, NaN
20050426,001751,983704,32.686651,-120.981383,4.4,16.273,32.984,41.892,752.37,0.0,0.519,15.467,15.437, NaN,24.135,   NaN,14.24,1017.02,81.99,14.63,282.4,272.3,1.4,7.1,285.0,316.7,1.8,7.4,NaN, NaN,13.3,59.0,59.0,1114474671,1114474671,1,2.0,001070,001071,53.1,32.686595,-120.981515,2.20,NaN,NaN,16.277, NaN,NaN,NaN, NaN, NaN
20050426,001820,983733,32.686773,-120.981093,4.4,16.275,32.987,41.898,550.84,0.0,0.519,15.469,15.438, NaN,24.138,   NaN,14.29,1017.01,81.84,14.64,282.8,269.3,1.0,7.2,266.5,314.7,1.5,7.5,NaN, NaN,13.7,74.7,76.7,1114474701,1114474701,1,2.2,001100,001101,53.2,32.686710,-120.981233,2.05,NaN,NaN,16.279, NaN,NaN,NaN, NaN, NaN
20050426,001850,983763,32.686895,-120.980786,4.5,16.277,32.990,41.903,883.50,0.0,0.519,15.477,15.443, NaN,24.139,   NaN,14.35,1017.03,81.87,14.67,315.0,269.6,1.5,7.2,291.3,315.1,1.7,7.5,NaN, NaN,14.7,63.6,69.1,1114474731,1114474731,1,2.4,001130,001131,52.6,32.686841,-120.980926,2.37,NaN,NaN,16.281, NaN,NaN,NaN, NaN, NaN
20050426,001920,983793,32.687020,-120.980476,4.5,16.280,32.991,41.907,887.77,0.0,0.519,15.482,15.446, NaN,24.140,   NaN,14.42,1017.09,81.90,14.73,302.3,268.2,0.8,6.6,268.7,312.6,1.4,6.9,NaN, NaN,14.5,102.6,85.7,1114474761,1114474761,1,2.7,001160,001161,52.0,32.686963,-120.980616,2.28,NaN,NaN,16.284, NaN,NaN,NaN, NaN, NaN
20050426,001951,983824,32.687158,-120.980188,4.4,16.283,32.993,41.912,1008.70,0.0,0.519,15.484,15.450, NaN,24.140,   NaN,14.50,1017.03,81.97,14.83,343.5,266.1,0.5,6.1,241.3,309.3,1.2,6.4,NaN, NaN,14.5,34.0,41.2,1114474791,1114474791,1,2.2,001190,001191,53.3,32.687110,-120.980328,2.19,NaN,NaN,16.287, NaN,NaN,NaN, NaN, NaN
20050426,002020,983853,32.687280,-120.979893,4.6,16.285,32.994,41.915,796.60,0.0,0.519,15.487,15.456, NaN,24.140,   NaN,14.43,1016.97,81.70,14.80,1.4,266.3,0.9,6.3,253.8,309.6,1.4,6.7,NaN, NaN,14.2,87.5,67.5,1114474821,1114474821,1,2.0,001220,001221,53.3,32.687230,-120.980030,2.29,NaN,NaN,16.289, NaN,NaN,NaN, NaN, NaN
20050426,002050,983883,32.687398,-120.979578,4.4,16.288,32.994,41.918,459.86,0.0,0.519,15.492,15.460, NaN,24.140,   NaN,14.42,1017.01,81.71,14.79,321.0,265.3,0.7,6.5,258.1,309.8,1.3,6.9,NaN, NaN,14.2,85.6,82.9,1114474851,1114474851,1,2.4,001250,001251,54.8,32.687338,-120.979731,2.23,NaN,NaN,16.292, NaN,NaN,NaN, NaN, NaN
20050426,002120,983913,32.687526,-120.979266,4.5,16.290,32.995,41.921,463.27,0.0,0.519,15.498,15.466, NaN,24.140,   NaN,14.46,1017.02,81.99,14.83,70.8,261.4,0.4,6.2,245.9,306.9,1.3,6.6,NaN, NaN,14.4,35.5,53.4,1114474881,1114474881,1,2.9,001280,001281,57.6,32.687478,-120.979411,2.60,NaN,NaN,16.294, NaN,NaN,NaN, NaN, NaN
20050426,002150,983943,32.687791,-120.978630,4.4,16.295,32.991,41.922,505.29,0.0,0.500,15.500,15.468, NaN,24.136,   NaN,14.54,1017.04,81.95,14.92,306.0,262.4,0.8,6.0,248.8,306.0,1.8,6.5,NaN, NaN,14.2,63.4,65.7,1114474911,1114474911,1,5.9,001310,001311,61.3,32.687766,-120.978766,5.14,NaN,NaN,16.299, NaN,NaN,NaN, NaN, NaN
20050426,002221,983974,32.688258,-120.977511,4.5,16.302,32.987,41.923,1038.23,0.0,0.519,15.506,15.473, NaN,24.131,   NaN,14.52,1016.99,81.79,14.95,309.4,270.5,1.6,6.6,263.0,307.9,2.9,7.3,NaN, NaN,13.6,56.8,59.6,1114474941,1114474941,1,8.3,001340,001341,62.4,32.688241,-120.977628,8.47,NaN,NaN,16.306, NaN,NaN,NaN, NaN, NaN
20050426,002250,984003,32.688848,-120.976146,4.4,16.305,32.985,41.924,568.05,0.0,0.500,15.509,15.478, NaN,24.129,   NaN,14.40,1016.91,81.68,14.86,295.9,281.6,4.4,7.7,291.6,312.2,5.1,8.1,NaN, NaN,13.8,66.6,64.6,1114474971,1114474971,1,9.4,001370,001371,60.7,32.688836,-120.976248,9.76,NaN,NaN,16.309, NaN,NaN,NaN, NaN, NaN
20050426,002320,984033,32.689506,-120.974663,4.6,16.310,32.984,41.927,647.90,0.0,0.500,15.515,15.481, NaN,24.127,   NaN,14.33,1016.98,81.87,14.84,289.9,289.4,6.4,8.3,306.8,315.3,6.8,8.3,NaN, NaN,14.6,53.7,58.1,1114475001,1114475001,1,10.6,001400,001401,61.7,32.689500,-120.974770,10.33,NaN,NaN,16.314, NaN,NaN,NaN, NaN, NaN
20050426,002350,984063,32.690196,-120.973193,4.6,16.311,32.984,41.929,514.17,0.0,0.519,15.519,15.486, NaN,24.127,   NaN,14.27,1016.89,82.02,14.81,291.2,291.3,6.9,8.5,307.9,315.3,7.1,8.3,NaN, NaN,13.9,66.7,60.5,1114475031,1114475031,1,10.3,001430,001431,59.8,32.690183,-120.973301,10.54,NaN,NaN,16.315, NaN,NaN,NaN, NaN, NaN
20050426,002420,984093,32.690905,-120.971705,4.5,16.314,32.987,41.934,538.30,0.0,0.519,15.524,15.492, NaN,24.128,   NaN,14.23,1016.92,82.01,14.74,292.9,292.4,7.1,8.6,308.7,315.5,7.1,8.3,NaN, NaN,14.7,54.0,57.4,1114475061,1114475061,1,10.2,001460,001461,59.3,32.690901,-120.971813,10.45,NaN,NaN,16.318, NaN,NaN,NaN, NaN, NaN
20050426,002450,984124,32.691615,-120.970218,4.3,16.312,32.993,41.940,672.21,0.0,0.500,15.527,15.496, NaN,24.133,   NaN,14.30,1016.87,82.38,14.78,297.7,294.7,7.6,8.7,314.8,317.3,7.1,8.2,NaN, NaN,14.5,64.3,61.0,1114475091,1114475091,1,10.6,001490,001491,58.3,32.691618,-120.970323,10.31,NaN,NaN,16.316, NaN,NaN,NaN, NaN, NaN
20050426,002520,984153,32.692331,-120.968741,4.5,16.311,32.998,41.944,502.30,0.0,0.500,15.531,15.498, NaN,24.137,   NaN,14.24,1016.90,82.13,14.77,299.4,296.2,8.1,8.8,318.5,318.8,7.3,8.2,NaN, NaN,14.7,52.9,55.3,1114475121,1114475121,1,10.3,001520,001521,59.0,32.692336,-120.968843,10.34,NaN,NaN,16.315, NaN,NaN,NaN, NaN, NaN
20050426,002550,984183,32.693048,-120.967270,4.5,16.315,32.994,41.944,488.40,0.0,0.481,15.533,15.501, NaN,24.134,   NaN,14.22,1016.87,82.14,14.70,298.5,295.5,8.3,9.1,318.4,319.2,7.6,8.4,NaN, NaN,14.7,52.8,56.6,1114475151,1114475151,1,10.2,001550,001551,57.5,32.693046,-120.967371,10.44,NaN,NaN,16.319, NaN,NaN,NaN, NaN, NaN
20050426,002620,984213,32.693785,-120.965815,4.6,16.319,32.989,41.942,580.38,0.0,0.481,15.538,15.504, NaN,24.129,   NaN,14.21,1016.85,82.22,14.66,296.5,294.9,7.9,9.2,314.8,318.7,7.5,8.5,NaN, NaN,14.8,67.9,62.4,1114475181,1114475181,1,9.9,001580,001581,58.8,32.693771,-120.965916,10.67,NaN,NaN,16.323, NaN,NaN,NaN, NaN, NaN
20050426,002651,984244,32.694513,-120.964346,4.7,16.319,32.988,41.941,530.37,0.0,0.463,15.543,15.512, NaN,24.128,   NaN,14.18,1016.92,82.03,14.63,294.0,292.4,7.3,9.1,309.4,316.3,7.1,8.7,NaN, NaN,15.1,71.2,65.9,1114475211,1114475211,1,10.5,001610,001611,58.0,32.694486,-120.964440,10.45,NaN,NaN,16.323, NaN,NaN,NaN, NaN, NaN
20050426,002720,984273,32.695248,-120.962896,4.6,16.323,32.986,41.942,565.14,0.0,0.463,15.546,15.516, NaN,24.126,   NaN,14.19,1016.92,82.10,14.61,293.9,291.7,7.1,8.8,308.3,314.7,7.0,8.5,NaN, NaN,15.5,60.2,61.4,1114475241,1114475241,1,10.3,001640,001641,58.3,32.695218,-120.962988,10.38,NaN,NaN,16.327, NaN,NaN,NaN, NaN, NaN
20050426,002750,984303,32.695986,-120.961438,4.6,16.324,32.987,41.945,460.10,0.0,0.463,15.551,15.516, NaN,24.126,   NaN,14.26,1016.88,81.92,14.67,293.9,291.3,7.2,9.1,309.1,315.2,7.1,8.8,NaN, NaN,13.7,61.0,58.3,1114475271,1114475271,1,9.9,001670,001671,58.8,32.695951,-120.961533,10.59,NaN,NaN,16.328, NaN,NaN,NaN, NaN, NaN
20050426,002820,984333,32.696703,-120.959968,4.6,16.328,32.986,41.947,463.11,0.0,0.463,15.552,15.521, NaN,24.125,   NaN,14.23,1016.88,81.59,14.65,295.5,290.7,7.5,9.4,311.6,316.2,7.2,9.1,NaN, NaN,15.3,63.8,64.1,1114475301,1114475301,1,10.3,001700,001701,58.1,32.696661,-120.960066,10.35,NaN,NaN,16.332, NaN,NaN,NaN, NaN, NaN
20050426,002850,984363,32.697433,-120.958515,4.7,16.331,32.988,41.952,457.01,0.0,0.444,15.554,15.526, NaN,24.125,   NaN,14.23,1016.90,81.42,14.63,295.2,290.8,7.4,9.2,310.6,315.5,7.1,8.9,NaN, NaN,14.7,64.6,61.4,1114475331,1114475331,1,10.4,001730,001731,58.0,32.697400,-120.958610,10.57,NaN,NaN,16.335, NaN,NaN,NaN, NaN, NaN
20050426,002920,984393,32.698155,-120.957071,4.6,16.335,32.991,41.958,453.72,0.0,0.444,15.555,15.523, NaN,24.126,   NaN,14.23,1016.86,81.22,14.63,290.8,290.0,7.3,9.3,306.7,314.7,7.4,9.0,NaN, NaN,15.6,61.2,57.9,1114475361,1114475361,1,10.1,001760,001761,59.6,32.698120,-120.957160,10.48,NaN,NaN,16.339, NaN,NaN,NaN, NaN, NaN
20050426,002950,984423,32.698846,-120.955610,4.4,16.337,32.992,41.962,451.27,0.0,0.444,15.556,15.524, NaN,24.127,   NaN,14.25,1016.87,81.13,14.63,288.4,286.9,6.7,9.0,302.1,311.7,7.2,9.1,NaN, NaN,13.4,54.5,56.7,1114475391,1114475391,1,10.1,001790,001791,58.6,32.698830,-120.955708,10.35,NaN,NaN,16.341, NaN,NaN,NaN, NaN, NaN
20050426,003020,984453,32.699578,-120.954158,4.6,16.341,32.995,41.970,453.84,0.0,0.444,15.556,15.523, NaN,24.129,   NaN,14.25,1016.95,80.86,14.65,284.9,284.5,6.1,8.4,296.7,307.4,7.0,8.8,NaN, NaN,15.8,61.2,58.3,1114475421,1114475421,1,10.6,001820,001821,59.5,32.699573,-120.954241,10.77,NaN,NaN,16.345, NaN,NaN,NaN, NaN, NaN
20050426,003050,984483,32.700318,-120.952688,4.1,16.344,32.997,41.975,451.58,0.0,0.444,15.556,15.523, NaN,24.129,   NaN,14.28,1016.88,81.00,14.67,285.3,285.3,6.0,7.9,295.8,305.6,7.0,8.4,NaN, NaN,14.8,63.5,61.4,1114475451,1114475451,1,10.2,001850,001851,58.3,32.700321,-120.952778,10.43,NaN,NaN,16.348, NaN,NaN,NaN, NaN, NaN
20050426,003120,984513,32.701045,-120.951233,4.6,16.347,32.999,41.979,450.50,0.0,0.444,15.554,15.522, NaN,24.130,   NaN,14.35,1016.92,81.10,14.77,289.2,286.9,5.9,7.7,297.4,306.1,6.6,8.0,NaN, NaN,14.4,69.8,61.4,1114475481,1114475481,1,10.1,001880,001881,60.5,32.701053,-120.951323,10.83,NaN,NaN,16.351, NaN,NaN,NaN, NaN, NaN
20050426,003151,984544,32.701796,-120.949731,4.5,16.350,33.002,41.986,446.85,0.0,0.444,15.551,15.517, NaN,24.132,   NaN,14.28,1016.93,80.76,14.72,288.1,287.3,6.0,7.9,297.2,307.4,6.7,8.1,NaN, NaN,15.0,65.1,58.7,1114475511,1114475511,1,10.1,001911,001911,57.8,32.701770,-120.949875,10.54,NaN,NaN,16.354, NaN,NaN,NaN, NaN, NaN
20050426,003220,984573,32.702483,-120.948316,4.7,16.348,33.007,41.989,449.45,0.0,0.444,15.544,15.514, NaN,24.136,   NaN,14.28,1016.91,80.93,14.69,286.7,286.7,5.8,7.9,295.8,307.4,6.7,8.2,NaN, NaN,13.7,65.2,61.2,1114475541,1114475541,1,10.0,001940,001941,58.6,32.702491,-120.948413,10.49,NaN,NaN,16.352, NaN,NaN,NaN, NaN, NaN
20050426,003250,984603,32.703208,-120.946871,4.5,16.350,33.010,41.994,446.21,0.0,0.463,15.535,15.502, NaN,24.138,   NaN,14.31,1016.94,80.90,14.72,286.4,284.6,6.0,8.1,296.7,306.5,6.9,8.6,NaN, NaN,15.0,53.9,57.9,1114475571,1114475571,1,10.9,001970,001971,58.8,32.703220,-120.946961,10.18,NaN,NaN,16.354, NaN,NaN,NaN, NaN, NaN
20050426,003320,984633,32.703956,-120.945415,4.4,16.352,33.013,42.000,444.81,0.0,0.444,15.525,15.490, NaN,24.140,   NaN,14.35,1016.92,81.03,14.76,288.6,285.3,6.3,8.2,299.8,307.4,6.9,8.6,NaN, NaN,14.2,60.9,59.8,1114475601,1114475601,1,10.7,002000,002001,58.3,32.703958,-120.945498,10.64,NaN,NaN,16.356, NaN,NaN,NaN, NaN, NaN
20050426,003350,984663,32.704693,-120.943971,4.6,16.351,33.017,42.004,446.46,0.0,0.444,15.518,15.483, NaN,24.143,   NaN,14.31,1016.90,80.74,14.75,288.7,287.9,6.6,8.4,301.4,309.6,7.1,8.5,NaN, NaN,15.1,75.5,67.6,1114475631,1114475631,1,10.3,002030,002031,58.8,32.704683,-120.944058,10.32,NaN,NaN,16.355, NaN,NaN,NaN, NaN, NaN
20050426,003420,984693,32.705398,-120.942536,4.4,16.352,33.019,42.007,441.59,0.0,0.463,15.510,15.477, NaN,24.144,   NaN,14.28,1016.93,80.67,14.71,291.3,290.7,6.8,8.7,304.9,313.2,7.0,8.5,NaN, NaN,14.1,50.2,54.3,1114475661,1114475661,1,9.8,002060,002061,59.8,32.705400,-120.942631,10.27,NaN,NaN,16.356, NaN,NaN,NaN, NaN, NaN
20050426,003450,984723,32.706116,-120.941086,4.6,16.343,33.028,42.009,481.82,0.0,0.444,15.507,15.473, NaN,24.153,   NaN,14.24,1016.87,80.54,14.65,293.1,292.0,7.0,8.6,307.1,314.5,6.9,8.3,NaN, NaN,14.5,60.8,59.3,1114475691,1114475691,1,10.5,002090,002091,58.6,32.706118,-120.941171,10.46,NaN,NaN,16.347, NaN,NaN,NaN, NaN, NaN
20050426,003520,984753,32.706831,-120.939621,4.4,16.336,33.038,42.013,441.35,0.0,0.463,15.508,15.471, NaN,24.162,   NaN,14.28,1016.94,80.50,14.66,293.1,291.2,6.9,8.5,306.1,313.1,6.9,8.3,NaN, NaN,14.6,62.5,60.9,1114475721,1114475721,1,10.2,002120,002121,59.2,32.706826,-120.939710,10.66,NaN,NaN,16.340, NaN,NaN,NaN, NaN, NaN
20050426,003550,984783,32.707553,-120.938145,4.6,16.330,33.043,42.013,443.93,0.0,0.444,15.505,15.471, NaN,24.168,   NaN,14.24,1017.00,80.22,14.67,291.7,289.6,6.6,8.5,303.7,311.7,6.9,8.5,NaN, NaN,14.5,62.0,59.4,1114475751,1114475751,1,10.2,002150,002151,59.1,32.707555,-120.938235,10.67,NaN,NaN,16.334, NaN,NaN,NaN, NaN, NaN
20050426,003620,984813,32.708278,-120.936678,4.7,16.319,33.053,42.014,443.69,0.0,0.444,15.504,15.470, NaN,24.178,   NaN,14.30,1016.95,80.37,14.70,287.8,287.1,6.3,8.3,299.3,308.8,7.0,8.5,NaN, NaN,14.1,57.2,58.1,1114475781,1114475781,1,10.4,002180,002181,59.0,32.708281,-120.936768,10.36,NaN,NaN,16.323, NaN,NaN,NaN, NaN, NaN